Weather History for KOQT - April, 2014

Change the Weather History Date:

Saturday, April 5, 2014

  Actual Average (KTYS) Record (KTYS)
Temperature  
Mean Temperature 50 °F 56 °F  
Max Temperature 60 °F 67 °F 87 °F (1934)
Min Temperature 42 °F 44 °F 24 °F (1881)
Degree Days  
Heating Degree Days 14 10  
Month to date heating degree days 52  
Since 1 July heating degree days 3409  
Cooling Degree Days 0 1  
Month to date cooling degree days 3  
Year to date cooling degree days 8  
Moisture  
Dew Point 33 °F    
Average Humidity 51    
Maximum Humidity 70    
Minimum Humidity 33    
Precipitation  
Precipitation 0.00 in 0.13 in 3.19 in (1983)
Month to date precipitation 0.65  
Year to date precipitation 13.57  
Snow  
Snow 0.00 in 0.00 in - ()
Month to date snowfall 0.1  
Since 1 July snowfall 6.1  
Snow Depth -    
Sea Level Pressure  
Sea Level Pressure 30.10 in    
Wind  
Wind Speed 5 mph (NNE)    
Max Wind Speed 9 mph    
Max Gust Speed 16 mph    
Visibility 10 miles    
Events      
T = Trace of Precipitation, MM = Missing Value Source: NWS Daily Summary

Daily Weather History Graph

Daily Weather History Graph

Search for Another Location

Airport or City:

Trip Planner

Search our weather history database for the weather conditions in past years. The results will help you decide how hot, cold, wet, or windy it might be!

Date:

Astronomy

Apr. 05, 2014 Rise Set
Actual Time 7:17 AM EDT 8:02 PM EDT
Civil Twilight 6:51 AM EDT 8:28 PM EDT
Nautical Twilight 6:20 AM EDT 8:58 PM EDT
Astronomical Twilight 5:49 AM EDT 9:30 PM EDT
Moon 11:31 AM EDT (4/5) 1:04 AM EDT (4/5)
Length of Visible Light 13h 36m
Length of Day
12h 44m
Waxing Crescent, 34% of the Moon is Illuminated
Apr 5
Waxing Crescent
Apr 7
First Quarter
Apr 15
Full
Apr 22
Last Quarter
Apr 29
New

Hourly Weather History & Observations

Time (EDT) Temp. Windchill Dew Point Humidity Pressure Visibility Wind Dir Wind Speed Gust Speed Precip Events Conditions
12:53 AM 53.1 °F - 42.1 °F 66% 30.00 in 10.0 mi North 4.6 mph - N/A   Clear
1:53 AM 51.1 °F - 39.0 °F 63% 30.02 in 10.0 mi North 4.6 mph - N/A   Clear
2:53 AM 46.9 °F - 36.0 °F 66% 30.06 in 10.0 mi NNW 5.8 mph - N/A   Clear
3:53 AM 46.0 °F 43.1 °F 35.1 °F 66% 30.07 in 10.0 mi North 5.8 mph - N/A   Clear
4:53 AM 45.0 °F 43.5 °F 33.1 °F 63% 30.08 in 10.0 mi Variable 3.5 mph - N/A   Clear
5:53 AM 42.1 °F - 33.1 °F 70% 30.09 in 10.0 mi Calm Calm - N/A   Clear
6:53 AM 42.1 °F 40.2 °F 33.1 °F 70% 30.11 in 10.0 mi North 3.5 mph - N/A   Clear
7:53 AM 43.0 °F 40.3 °F 30.9 °F 62% 30.12 in 10.0 mi NNW 4.6 mph - N/A   Scattered Clouds
8:53 AM 46.9 °F - 32.0 °F 56% 30.13 in 10.0 mi Variable 4.6 mph - N/A   Partly Cloudy
9:53 AM 48.0 °F - 30.0 °F 50% 30.15 in 10.0 mi Variable 5.8 mph - N/A   Mostly Cloudy
10:53 AM 48.9 °F - 30.0 °F 48% 30.15 in 10.0 mi Variable 3.5 mph - N/A   Mostly Cloudy
11:53 AM 51.1 °F - 30.9 °F 46% 30.16 in 10.0 mi Variable 5.8 mph - N/A   Partly Cloudy
12:53 PM 53.1 °F - 30.9 °F 43% 30.15 in 10.0 mi ENE 9.2 mph 16.1 mph N/A   Clear
1:53 PM 55.0 °F - 33.1 °F 43% 30.13 in 10.0 mi Variable 5.8 mph - N/A   Clear
2:53 PM 55.9 °F - 32.0 °F 40% 30.12 in 10.0 mi Variable 3.5 mph - N/A   Clear
3:53 PM 57.9 °F - 32.0 °F 37% 30.10 in 10.0 mi NE 8.1 mph - N/A   Clear
4:53 PM 59.0 °F - 30.9 °F 35% 30.08 in 10.0 mi NE 8.1 mph - N/A   Clear
5:53 PM 59.0 °F - 30.0 °F 33% 30.09 in 10.0 mi ENE 8.1 mph - N/A   Clear
6:53 PM 57.9 °F - 30.0 °F 35% 30.08 in 10.0 mi Variable 5.8 mph - N/A   Clear
7:53 PM 55.0 °F - 30.9 °F 40% 30.09 in 10.0 mi Variable 4.6 mph - N/A   Clear
8:53 PM 53.1 °F - 30.9 °F 43% 30.10 in 10.0 mi Calm Calm - N/A   Clear
9:53 PM 52.0 °F - 30.9 °F 45% 30.12 in 10.0 mi Calm Calm - N/A   Clear
10:53 PM 51.1 °F - 30.9 °F 46% 30.12 in 10.0 mi Calm Calm - N/A   Clear
11:53 PM 48.0 °F - 33.1 °F 56% 30.10 in 10.0 mi NE 3.5 mph - N/A   Clear